Regional Weather Roundup
Issued by NWS

Home | Current Version | Previous Version | Text Only | Print | Product List | Glossary Off
Versions: 1 2 3 4 5 6 7 8 9 10 11 12 13 14 15 16 17 18 19 20 21 22 23 24 25 26 27 28 29 30 31 32 33 34 35 36 37 38 39 40 41 42 43 44 45 46 47 48 49 50

000
ASUS43 KBIS 310510
RWRND

NORTH DAKOTA REGIONAL WEATHER ROUNDUP
NATIONAL WEATHER SERVICE BISMARCK ND
1200 AM CDT FRI OCT 31 2014

NOTE: "FAIR" INDICATES FEW OR NO CLOUDS BELOW 12,000 FEET WITH NO
SIGNIFICANT WEATHER AND/OR OBSTRUCTIONS TO VISIBILITY.


NDZ001>003-009>011-017-310600-
NORTHWEST NORTH DAKOTA

CITY           SKY/WX    TMP DP  RH WIND       PRES   REMARKS
WILLISTON      CLOUDY    31  24  75 SE15      30.50F
MINOT          CLEAR     20  16  84 SW5       30.56R WCI  13
MINOT AFB      CLEAR     15  13  94 W3        30.56R
$$

NDZ018>021-031>035-040>046-310600-
SOUTHWEST NORTH DAKOTA

CITY           SKY/WX    TMP DP  RH WIND       PRES   REMARKS
BISMARCK       CLEAR     20  17  88 CALM      30.59R
DICKINSON      CLOUDY    30  26  85 SE13      30.48S WCI  20
GARRISON         N/A     18  15  88 CALM      30.55F
HETTINGER ARPT CLOUDY    31  27  85 E12       30.51R
$$

NDZ004>008-012>016-024-026-027-054-310600-
NORTHEAST NORTH DAKOTA

CITY           SKY/WX    TMP DP  RH WIND       PRES   REMARKS
GRAND FORKS    CLEAR     20  16  84 NW7       30.58S WCI  11
GRND FRKS AFB  CLEAR     22  16  77 N8        30.59R WCI  13
DEVILS LAKE    PTCLDY    21  10  63 NE5       30.56S WCI  15
$$

NDZ022-023-025-028>030-036>039-047>053-310600-
SOUTHEAST NORTH DAKOTA

CITY           SKY/WX    TMP DP  RH WIND       PRES   REMARKS
FARGO          CLEAR     24  18  77 N9        30.55R WCI  14
$$




USA.gov is the U.S. government's official web portal to all federal, state and local government web resources and services.